fechar
X Fechar
X Fechar

X Fechar
foto
Salvar nos Favoritos

X Fechar
foto
Clique e saiba mais
Clique e saiba mais
Clique e saiba mais
Clique e saiba mais
Clique e saiba mais
Clique e saiba mais
Clique e saiba mais

América Sports

Capacete Companhia

RM - Motocross Racing

Edgers Racing

RX Graphics

JPS Racing

Ohlins

DLua Racing

Toro Sports

Clique e saiba mais

> Notícias > Últimas Notícias

Resultados do MXGP da Europa em Valkenswaard Mundial de Motocross
Publicado em: 23/04/2017

Resultados do MXGP da Europa 6ª etapa do Mundial de Motocross 2017
Redação MotoX.com.br - Foto: Max Zanzani / Youthstream


Circuito de Valkenswaard, Holanda

+ Clique aqui para o artigo completo com a palavra dos pilotos sobre o evento.

Vídeo



Resultados da Baterias

MXGP

Pódio
1. Gautier Paulin, 47
2. Jeffrey Herlings, 40
3. Jeremy van Horebeek, 38

P. Nac Piloto M Tempo Diff Gap Melhor Volta Last Lap
1 IT A. Cairoli (222) KTM 35:26.367 +10:39.999 +10:39.999 01:50.748 18: 01:57.236
2 FR G. Paulin (21) HUS 35:28.625 +00:02.258 +00:02.258 01:51.278 18: 01:54.187
3 NL J. Herlings (84) KTM 35:28.984 +00:02.617 +00:00.359 01:50.982 18: 01:52.842
4 SI T. Gajser (243) HON 35:34.597 +00:08.230 +00:05.613 01:51.555 18: 01:53.441
5 BE J. V. Horebeek (89) YAM 35:38.973 +00:12.606 +00:04.376 01:51.293 18: 02:00.000
6 FR R. Febvre (461) YAM 35:41.324 +00:14.957 +00:02.351 01:51.446 18: 01:57.668
7 LT A. Jasikonis (177) SUZ 35:45.247 +00:18.880 +00:03.923 01:51.919 18: 01:57.088
8 RU E. Bobryshev (777) HON 35:54.487 +00:28.120 +00:09.240 01:51.504 18: 02:01.972
9 CH A. Tonus (66) YAM 36:00.262 +00:33.895 +00:05.775 01:51.839 18: 01:56.341
10 NL G. Coldenhoff (259) KTM 36:00.503 +00:34.136 +00:00.241 01:52.198 18: 01:53.590
11 DE M. Nagl (12) HUS 36:08.967 +00:42.600 +00:08.464 01:52.811 18: 01:56.619
12 EE T. Leok (7) HUS 36:11.560 +00:45.193 +00:02.593 01:52.730 18: 01:57.452
13 GB S. Simpson (24) YAM 36:14.230 +00:47.863 +00:02.670 01:53.045 18: 01:58.624
14 BE C. Desalle (25) KAW 36:42.909 +01:16.542 +00:28.679 01:52.888 18: 02:01.586
15 SE F. Bengtsson (11) KTM 36:51.912 +01:25.545 +00:09.003 01:54.164 18: 01:58.990
16 CH V. Guillod (92) HON 36:52.280 +01:25.913 +00:00.368 01:54.957 18: 01:56.973
17 EE H. Kullas (151) HUS 36:54.333 +01:27.966 +00:02.053 01:55.163 18: 01:57.410
18 FR S. Lenoir (685) KAW 36:58.148 +01:31.781 +00:03.815 01:55.480 18: 01:58.408
19 BE J. Dewulf (212) KTM 35:30.909 -1 lap -1 lap 01:55.450 17: 02:05.345
20 PT R. Goncalves (999) HUS 35:36.253 -1 lap -1 lap 01:54.849 17: 02:28.402
21 EE G. Krestinov (37) HON 35:40.459 -1 lap -1 lap 01:55.226 17: 02:33.637
22 SE J. Bengtsson (293) KTM 35:44.175 -1 lap -1 lap 01:56.764 17: 01:59.741
23 FR M. Desprey (141) KAW 35:52.068 -1 lap -1 lap 01:57.396 17: 02:06.673
24 NL S. V. d. Mierden (94) HUS 36:18.369 -1 lap -1 lap 01:58.016 17: 02:18.750
26 SI P. Irt (48) YAM 36:38.231 -1 lap -1 lap 01:58.612 17: 02:00.746
27 SI K. Gercar (62) HUS 36:39.065 -1 lap -1 lap 01:58.906 17: 02:00.041
28 BE B. Boulard (474) YAM 35:32.876 -2 laps -2 laps 02:01.541 16: 02:10.418
29 BE D. Graulus (71) HON 27:29.813 -6 laps -6 laps 01:56.214 12: 02:04.729
30 ES J. Butron (17) KTM 23:52.222 -7 laps -7 laps 01:57.406 11: 02:05.299
31 ES A. Valentin (920) HON 25:03.516 -7 laps -7 laps 02:01.653 11: 02:02.506
33 BE K. d. Dycker (9) SUZ 11:50.583 -13 laps -13 laps 01:57.528 5: 01:59.125
34 IT A. Lupino (77) HON 02:53.388 -18 laps -18 laps 10:39.999  


MX2

Pódio


1. Pauls Jonass, 50
2. Jeremy Seewer, 40
3. Brent van Donink, 36
P. Nac MX2 Bateria 2 M Tempo Diff Gap Melhor Volta Last Lap
1 LV P. Jonass (41) KTM 34:09.329 +10:39.999 +10:39.999 01:52.232 17: 01:58.932
2 CH J. Seewer (91) SUZ 34:13.820 +00:04.491 +00:04.491 01:51.885 17: 01:56.794
3 BE B. V. doninck (172) YAM 34:18.839 +00:09.510 +00:05.019 01:52.797 17: 01:58.245
4 DK T. K. Olsen (116) HUS 34:22.681 +00:13.352 +00:03.842 01:52.960 17: 01:57.005
5 AU H. Lawrence (96) SUZ 34:33.707 +00:24.378 +00:11.026 01:53.620 17: 01:55.044
6 DE B. Hsu (81) HUS 34:38.023 +00:28.694 +00:04.316 01:51.938 17: 01:56.004
7 NL C. Vlaanderen (10) KTM 34:40.378 +00:31.049 +00:02.355 01:54.065 17: 01:57.130
8 BG P. Petrov (152) KAW 34:45.471 +00:36.142 +00:05.093 01:54.102 17: 01:56.290
9 FR B. Paturel (6) YAM 34:45.716 +00:36.387 +00:00.245 01:54.727 17: 01:56.052
10 NL B. Bogers (189) KTM 34:57.019 +00:47.690 +00:11.303 01:54.612 17: 02:01.448
11 US D. Sanayei (457) KAW 34:59.663 +00:50.334 +00:02.644 01:54.872 17: 01:56.333
12 GB B. Watson (919) KTM 35:00.529 +00:51.200 +00:00.866 01:54.560 17: 01:55.571
13 SE A. Östlund (161) YAM 35:06.289 +00:56.960 +00:05.760 01:54.876 17: 01:58.292
14 IT M. Cervellin (747) HON 35:09.877 +01:00.548 +00:03.588 01:56.334 17: 01:59.102
15 NL F. v. d. Vlist (88) KTM 35:13.437 +01:04.108 +00:03.560 01:55.413 17: 02:01.063
16 IT S. Bernardini (321) TM 35:16.967 +01:07.638 +00:03.530 01:55.553 17: 01:59.259
17 IT I. Monticelli (128) KTM 35:17.310 +01:07.981 +00:00.343 01:56.125 17: 01:57.909
18 DE H. Jacobi (29) HUS 35:20.336 +01:11.007 +00:03.026 01:55.708 17: 01:57.038
19 NL M. D. Waal (53) HON 35:21.161 +01:11.832 +00:00.825 01:56.266 17: 01:59.292
20 NL L. v. Berkel (107) HON 35:28.567 +01:19.238 +00:07.406 01:56.854 17: 01:57.929
22 GB C. Mewse (426) HUS 35:44.951 +01:35.622 +00:14.710 01:56.087 17: 02:03.484
23 ES J. P. Garcia (61) KTM 36:05.966 +01:56.637 +00:21.015 01:54.295 17: 02:08.665
24 BG M. G. Ivanov (97) HON 34:16.492 -1 lap -1 lap 01:58.037 16: 02:04.936
25 BE N. Renkens (83) KTM 34:24.562 -1 lap -1 lap 01:58.867 16: 02:08.523
27 EE H. Roosiorg (75) KTM 34:55.559 -1 lap -1 lap 01:59.867 16: 02:01.927
30 FR E. Toriani (783) HUS 35:47.362 -1 lap -1 lap 02:03.671 16: 02:04.479
33 FR D. Herbreteau (338) KAW 22:24.875 -7 laps -7 laps 01:58.905 10: 02:07.593
34 AU C. Ward (485) HUS 19:52.968 -8 laps -8 laps 01:56.865 9: 02:00.342
35 EE K. Kutsar (132) HUS 18:07.712 -9 laps -9 laps 01:57.398 8: 02:21.830
36 US T. Covington (64) HUS 12:24.409 -12 laps -12 laps 01:55.291 5: 02:22.195
37 BE J. Lieber (33) KTM 02:11.761 -17 laps -17 laps 10:39.999  
38 RU V. Brylyakov (18) KAW 10:39.999 -18 laps -18 laps 10:39.999  

1ª Bateria

P. Nac MXGP Bateria 1 M Tempo Diff Gap Melhor Volta Last Lap
1 FR G. Paulin (21) HUS 35:24.915 +10:39.999 +10:39.999 01:50.905 18: 01:52.807
2 BE J. V. Horebeek (89) YAM 35:25.865 +00:00.950 +00:00.950 01:51.221 18: 01:51.372
3 NL J. Herlings (84) KTM 35:29.739 +00:04.824 +00:03.874 01:50.068 18: 01:53.168
4 RU E. Bobryshev (777) HON 35:30.549 +00:05.634 +00:00.810 01:51.529 18: 01:52.482
5 LT A. Jasikonis (177) SUZ 35:30.878 +00:05.963 +00:00.329 01:50.359 18: 01:51.198
6 SI T. Gajser (243) HON 35:44.363 +00:19.448 +00:13.485 01:50.701 18: 01:57.519
7 BE C. Desalle (25) KAW 35:52.133 +00:27.218 +00:07.770 01:52.457 18: 01:52.457
8 NL G. Coldenhoff (259) KTM 35:53.882 +00:28.967 +00:01.749 01:52.629 18: 01:53.422
9 IT A. Cairoli (222) KTM 36:02.367 +00:37.452 +00:08.485 01:51.109 18: 01:54.438
10 DE M. Nagl (12) HUS 36:03.340 +00:38.425 +00:00.973 01:52.665 18: 01:54.530
11 FR R. Febvre (461) YAM 36:04.026 +00:39.111 +00:00.686 01:52.620 18: 01:53.035
12 GB S. Simpson (24) YAM 36:27.453 +01:02.538 +00:23.427 01:52.954 18: 02:01.771
13 EE T. Leok (7) HUS 36:37.584 +01:12.669 +00:10.131 01:54.279 18: 02:01.499
14 CH A. Tonus (66) YAM 36:41.099 +01:16.184 +00:03.515 01:52.077 18: 01:58.542
16 BE J. Dewulf (212) KTM 36:54.884 +01:29.969 +00:02.759 01:53.974 18: 01:55.606
17 EE H. Kullas (151) HUS 36:56.046 +01:31.131 +00:01.162 01:54.293 18: 01:55.219
18 EE G. Krestinov (37) HON 36:56.832 +01:31.917 +00:00.786 01:54.971 18: 01:54.971
19 CH V. Guillod (92) HON 37:02.832 +01:37.917 +00:06.000 01:54.748 18: 01:58.893
20 PT R. Goncalves (999) HUS 37:05.902 +01:40.987 +00:03.070 01:54.150 18: 01:57.803
21 IT A. Lupino (77) HON 37:07.621 +01:42.706 +00:01.719 01:55.562 18: 01:58.569
22 SE F. Bengtsson (11) KTM 37:11.059 +01:46.144 +00:03.438 01:55.222 18: 01:59.650
23 FR M. Desprey (141) KAW 37:11.783 +01:46.868 +00:00.724 01:55.065 18: 01:56.849
24 BE D. Graulus (71) HON 37:12.175 +01:47.260 +00:00.392 01:55.283 18: 01:55.325
25 BE K. d. Dycker (9) SUZ 35:25.153 -1 lap -1 lap 01:55.554 17: 02:05.786
26 FR S. Lenoir (685) KAW 35:46.382 -1 lap -1 lap 01:56.999 17: 02:02.795
27 SE J. Bengtsson (293) KTM 35:50.030 -1 lap -1 lap 01:57.321 17: 02:00.907
28 SI K. Gercar (62) HUS 36:20.178 -1 lap -1 lap 01:57.551 17: 02:07.079
29 NL S. V. d. Mierden (94) HUS 36:28.204 -1 lap -1 lap 01:58.406 17: 02:03.805
31 SI P. Irt (48) YAM 36:40.428 -1 lap -1 lap 01:59.281 17: 02:02.057
32 BE B. Boulard (474) YAM 36:51.659 -1 lap -1 lap 02:00.458 17: 02:02.183
33 ES A. Valentin (920) HON 36:49.375 -4 laps -4 laps 01:59.583 14: 02:07.946
34 BE K. Strijbos (22) SUZ 19:57.847 -9 laps -9 laps 01:55.323 9: 02:07.519
35 ES J. Butron (17) KTM 10:39.999 -19 laps -19 laps 10:39.999  


P. Nac MX2 Bateria 1 M Tempo Diff Gap Melhor Volta Last Lap
1 LV P. Jonass (41) KTM 35:37.548 +10:39.999 +10:39.999 01:51.044 18: 01:57.497
2 BE J. Lieber (33) KTM 35:41.024 +00:03.476 +00:03.476 01:51.000 18: 01:57.845
3 US T. Covington (64) HUS 36:14.476 +00:36.928 +00:33.452 01:52.504 18: 02:00.157
4 CH J. Seewer (91) SUZ 36:22.312 +00:44.764 +00:07.836 01:53.402 18: 01:57.459
5 BE B. V. doninck (172) YAM 36:28.676 +00:51.128 +00:06.364 01:51.950 18: 01:59.024
6 NL C. Vlaanderen (10) KTM 36:33.957 +00:56.409 +00:05.281 01:53.330 18: 01:59.160
7 FR B. Paturel (6) YAM 36:41.076 +01:03.528 +00:07.119 01:53.115 18: 01:59.193
8 RU V. Brylyakov (18) KAW 36:45.448 +01:07.900 +00:04.372 01:54.063 18: 01:57.582
9 DK T. K. Olsen (116) HUS 36:50.113 +01:12.565 +00:04.665 01:53.246 18: 01:57.829
10 AU H. Lawrence (96) SUZ 36:52.865 +01:15.317 +00:02.752 01:53.866 18: 01:56.916
11 SE A. Östlund (161) YAM 36:59.406 +01:21.858 +00:06.541 01:54.238 18: 01:58.844
12 BG P. Petrov (152) KAW 37:04.635 +01:27.087 +00:05.229 01:55.243 18: 02:00.530
13 DE H. Jacobi (29) HUS 37:08.669 +01:31.121 +00:04.034 01:55.283 18: 02:00.387
14 IT I. Monticelli (128) KTM 37:15.123 +01:37.575 +00:06.454 01:55.349 18: 02:00.401
15 US D. Sanayei (457) KAW 37:17.254 +01:39.706 +00:02.131 01:54.732 18: 01:58.178
16 NL L. v. Berkel (107) HON 37:21.927 +01:44.379 +00:04.673 01:55.912 18: 01:59.960
17 ES J. P. Garcia (61) KTM 37:22.141 +01:44.593 +00:00.214 01:52.101 18: 01:59.248
18 IT M. Cervellin (747) HON 37:28.651 +01:51.103 +00:06.510 01:56.518 18: 02:00.560
19 NL B. Bogers (189) KTM 37:32.576 +01:55.028 +00:03.925 01:55.818 18: 02:00.165
20 GB C. Mewse (426) HUS 37:36.157 +01:58.609 +00:03.581 01:56.185 18: 01:59.795
21 NL M. D. Waal (53) HON 35:38.555 -1 lap -1 lap 01:56.503 17: 01:59.407
22 GB B. Watson (919) KTM 35:40.288 -1 lap -1 lap 01:54.545 17: 02:01.887
23 AU C. Ward (485) HUS 35:49.687 -1 lap -1 lap 01:54.565 17: 02:00.997
24 NL F. v. d. Vlist (88) KTM 35:58.182 -1 lap -1 lap 01:53.253 17: 02:00.316
25 BE N. Renkens (83) KTM 36:33.388 -1 lap -1 lap 01:59.631 17: 02:02.178
26 BG M. G. Ivanov (97) HON 37:09.542 -1 lap -1 lap 01:58.578 17: 02:04.379
29 FR E. Toriani (783) HUS 36:10.184 -2 laps -2 laps 02:04.436 16: 02:07.738
30 EE K. Kutsar (132) HUS 35:59.232 -1 lap -1 lap 01:55.472 17: 01:59.852
32 DE B. Hsu (81) HUS 37:06.931 -2 laps -2 laps 01:55.453 16: 01:59.575
33 IT S. Bernardini (321) TM 33:25.797 -3 laps -3 laps 01:54.970 15: 03:53.107
35 BG I. Petrov (142) HUS 26:20.551 -6 laps -6 laps 01:59.640 12: 02:03.497
36 GB A. Sterry (811) KAW 23:08.571 -7 laps -7 laps 01:52.240 11: 02:15.677
37 FR D. Herbreteau (338) KAW 20:24.643 -9 laps -9 laps 01:59.099 9: 02:14.067
39 EE H. Roosiorg (75) KTM 04:04.494 -17 laps -17 laps 02:01.003  






Vídeos MotoX Connect



Acompanhe o MotoX no Facebook

Curso MotoX Ric Raspa
Brasil Racing
JPS Racing

© 2000 - 2017 MotoX MX1 Internet